Location: NJAA Observatory
(40.6819°N, 74.8979°W)
Time: 06:58:14
(UTC-04:00)

Courier 1B - All Passes

Search period start: 19 April 2015 00:00
Search period end: 29 April 2015 00:00
Orbit: 963 x 1209 km, 28.3° (Epoch: 18 April)

Date Brightness Start Highest point End Pass type
(mag) Time Alt. Az. Time Alt. Az. Time Alt. Az.
19 Apr - 09:33:54 10° S 09:36:31 12° SSE 09:39:27 10° SE daylight
19 Apr - 11:23:47 10° SW 11:29:43 26° SSE 11:35:55 10° ESE daylight
19 Apr - 13:16:34 10° WSW 13:23:12 33° S 13:30:00 10° ESE daylight
19 Apr - 15:10:35 10° WSW 15:16:43 25° SSW 15:22:48 10° SE daylight
19 Apr - 17:07:32 10° SW 17:10:01 11° SSW 17:12:11 10° S daylight
20 Apr - 10:30:41 10° SSW 10:36:04 23° SSE 10:41:45 10° ESE daylight
20 Apr - 12:22:59 10° SW 12:29:28 32° S 12:36:12 10° ESE daylight
20 Apr - 14:16:38 10° WSW 14:23:01 28° SSW 14:29:26 10° SE daylight
20 Apr - 16:12:07 10° WSW 16:16:23 15° SSW 16:20:25 10° S daylight
21 Apr - 09:37:52 10° SSW 09:42:29 19° SSE 09:47:24 10° ESE daylight
21 Apr - 11:29:32 10° SW 11:35:46 30° S 11:42:18 10° ESE daylight
21 Apr - 13:22:50 10° WSW 13:29:17 30° S 13:35:53 10° SE daylight
21 Apr - 15:17:33 10° WSW 15:22:43 19° SSW 15:27:46 10° SSE daylight
22 Apr - 08:45:28 10° S 08:48:56 14° SSE 08:52:42 10° SE daylight
22 Apr - 10:36:13 10° SW 10:42:07 28° SSE 10:48:20 10° ESE daylight
22 Apr - 12:29:09 10° WSW 12:35:34 31° S 12:42:13 10° SE daylight
22 Apr - 14:23:21 10° WSW 14:29:03 22° SSW 14:34:44 10° SSE daylight
23 Apr - 07:54:23 10° SSE 07:55:26 10° SSE 07:56:45 10° SE daylight
23 Apr - 09:43:04 10° SW 09:48:30 24° SSE 09:54:16 10° ESE daylight
23 Apr - 11:35:35 10° WSW 11:41:53 32° S 11:48:27 10° ESE daylight
23 Apr - 13:29:23 10° WSW 13:35:21 25° SSW 13:41:26 10° SE daylight
23 Apr - 15:25:45 10° SW 15:28:41 12° SSW 15:31:23 10° S daylight
24 Apr - 08:50:06 10° SSW 08:54:56 20° SSE 09:00:04 10° ESE daylight
24 Apr - 10:42:08 10° SW 10:48:12 31° S 10:54:37 10° ESE daylight
24 Apr - 12:35:35 10° WSW 12:41:40 28° S 12:47:58 10° SE daylight
24 Apr - 14:30:44 10° WSW 14:35:03 16° SSW 14:39:14 10° S daylight
25 Apr - 07:57:27 10° SSW 08:01:25 16° SSE 08:05:39 10° ESE daylight
25 Apr - 09:48:47 10° SW 09:54:35 28° S 10:00:42 10° ESE daylight
25 Apr - 11:41:54 10° WSW 11:48:00 30° S 11:54:21 10° SE daylight
25 Apr - 13:36:22 10° WSW 13:41:24 19° SSW 13:46:25 10° SSE daylight
26 Apr - 07:05:22 10° S 07:07:55 13° SSE 07:10:45 10° SE daylight
26 Apr - 08:55:34 10° SW 09:01:00 26° SSE 09:06:44 10° ESE daylight
26 Apr - 10:48:19 10° WSW 10:54:20 30° S 11:00:40 10° SE daylight
26 Apr - 12:42:18 10° WSW 12:47:45 22° SSW 12:53:17 10° SSE daylight
27 Apr - 08:02:30 10° SSW 08:07:27 22° SSE 08:12:40 10° ESE daylight
27 Apr - 09:54:51 10° WSW 10:00:43 30° S 10:06:54 10° ESE daylight
27 Apr - 11:48:28 10° WSW 11:54:06 25° SSW 11:59:56 10° SE daylight
27 Apr - 13:44:30 10° SW 13:47:25 12° SSW 13:50:06 10° S daylight
28 Apr - 07:09:39 10° SSW 07:13:57 18° SSE 07:18:28 10° ESE daylight
28 Apr - 09:01:28 10° SW 09:07:07 29° S 09:13:04 10° ESE daylight
28 Apr - 10:54:45 10° WSW 11:00:28 27° S 11:06:26 10° SE daylight
28 Apr - 12:49:42 10° SW 12:53:48 15° SSW 12:57:49 10° S daylight
